Wind_Speed
3 3 2 3 5 5 6 8 9 9 9 10 10 11 12 11 11 11 11 11 11 10 10 11 11 11 11 11 10 10 10 10 10 9 9 8 7 6 5 5 5 4 3 3 2 1 0 1 2
3 2 2 2 4 5 6 7 8 8 8 9 10 11 11 11 11 11 10 10 10 10 10 11 11 11 10 10 10 10 10 10 9 9 9 8 7 6 5 5 5 4 4 3 2 2 2 2 3
3 3 1 1 3 5 6 6 7 8 7 9 10 11 12 11 11 11 10 10 10 9 10 11 11 11 10 10 11 11 10 10 9 9 9 8 7 5 5 6 5 5 4 3 3 2 3 3 4
4 3 2 2 1 3 5 5 6 7 7 7 9 10 11 11 11 11 10 9 10 10 10 11 11 11 11 10 11 11 10 9 9 9 9 8 7 7 6 6 5 4 5 4 3 3 3 4 5
5 4 3 2 1 1 2 4 5 6 7 7 9 10 11 11 11 10 10 10 10 10 10 10 10 10 10 10 10 10 10 9 9 9 9 8 7 7 6 6 6 5 5 4 4 4 4 4 6
6 5 4 2 1 1 1 3 5 5 5 7 8 9 10 11 10 10 10 10 10 10 10 10 10 10 10 10 10 10 9 9 9 9 8 8 7 7 6 7 6 5 5 5 4 4 4 5 5
7 6 5 3 2 2 1 3 4 4 5 6 7 8 10 11 10 11 10 10 10 10 10 10 10 10 10 10 10 9 9 9 9 9 8 8 7 6 7 6 6 6 6 5 6 5 5 5 4
7 7 6 4 3 2 2 3 3 4 5 6 7 8 9 10 10 11 10 10 10 9 10 10 9 9 9 9 9 9 9 9 9 9 8 8 7 7 6 6 6 6 6 6 6 5 6 6 5
9 8 6 6 5 3 3 2 4 4 4 6 7 8 8 9 9 10 10 9 9 10 10 9 9 8 8 9 9 9 9 9 9 9 9 8 8 7 6 6 7 7 7 6 6 6 5 5 5
11 9 8 8 7 6 5 4 4 4 5 7 7 7 7 8 9 9 9 8 9 9 10 9 9 9 9 9 9 8 9 9 9 9 8 8 8 7 7 7 7 7 7 6 6 6 6 5 5
12 11 10 10 9 8 7 6 6 6 7 7 7 7 7 8 8 8 9 8 8 9 9 9 10 10 10 9 9 8 9 9 9 8 8 8 8 8 8 8 7 7 7 6 5 5 5 5 5
14 13 12 12 11 10 9 8 8 8 8 8 8 8 8 7 8 9 9 9 8 8 9 9 10 11 10 9 8 8 9 9 9 8 8 8 8 8 8 8 8 7 7 5 4 3 4 4 5
15 14 14 14 13 12 11 10 9 9 9 9 9 9 8 8 8 8 9 8 8 8 9 10 10 10 10 9 9 8 9 9 9 9 9 8 8 8 8 8 7 7 6 5 3 3 4 4 4
16 16 15 15 15 14 13 11 10 10 10 9 9 9 8 8 8 8 8 8 8 9 10 10 10 10 10 9 9 8 8 9 9 9 9 9 8 8 8 8 7 6 7 6 4 3 3 4 5
17 17 16 15 15 15 13 12 11 11 11 10 10 10 9 8 8 8 8 8 8 9 10 10 10 10 10 9 9 7 8 9 9 8 8 8 8 8 8 8 7 7 7 7 5 4 3 5 6
18 18 16 16 16 15 15 13 12 13 12 11 10 11 10 8 8 7 8 9 8 8 9 10 10 10 10 9 8 7 8 8 9 9 9 8 8 8 8 8 8 8 8 7 6 5 5 5 6
19 18 17 17 17 17 17 15 13 14 13 11 11 11 10 9 8 8 8 8 8 8 8 10 10 10 9 9 7 7 7 8 8 9 9 8 8 8 8 8 9 8 8 7 6 5 6 6 6
20 19 18 18 18 18 18 16 15 14 13 12 11 10 10 9 8 8 8 8 9 8 8 9 10 10 9 8 8 8 8 8 8 8 8 8 8 9 8 9 9 8 8 7 6 5 6 6 6
22 21 20 19 19 19 19 17 16 14 13 13 12 11 10 9 8 8 8 8 8 8 9 9 9 9 8 8 9 9 9 8 8 8 8 8 8 9 9 9 9 9 8 6 6 6 6 6 6
24 22 21 20 20 20 20 18 16 15 14 14 13 11 10 9 7 7 8 8 8 9 9 9 10 9 9 8 9 9 10 9 9 9 8 8 9 9 9 9 10 10 9 8 7 7 6 7 7
25 23 22 21 21 21 20 19 18 16 14 13 13 12 11 9 8 7 8 9 9 9 9 9 10 9 9 9 9 9 9 10 9 9 8 9 9 10 10 10 10 9 9 8 8 8 7 7 8
24 24 23 23 22 22 22 21 19 18 16 14 13 13 11 10 9 9 9 9 9 10 10 10 10 10 9 9 9 8 9 9 9 8 8 8 9 10 10 10 10 9 9 9 9 9 9 9 9
24 24 25 24 24 24 23 23 19 19 17 15 14 14 12 11 11 10 10 11 10 11 11 11 11 10 9 9 9 9 9 9 9 8 8 9 10 11 11 11 10 10 9 9 9 9 9 9 9
25 25 26 26 26 25 23 24 20 18 18 16 15 15 14 13 12 11 12 12 11 11 11 11 11 11 10 9 9 9 9 9 10 10 10 10 11 12 12 12 11 11 11 11 11 10 10 10 10
26 26 26 26 27 26 23 24 21 19 18 17 16 16 15 14 13 13 12 12 12 12 13 13 13 12 11 10 9 9 10 10 10 11 11 12 12 13 14 13 12 11 12 12 12 11 12 12 11
26 27 28 28 27 25 24 23 21 20 19 19 18 17 16 15 15 14 13 13 13 13 14 14 14 13 12 11 11 11 11 11 12 12 12 13 13 14 15 14 13 13 13 13 13 13 13 13 13
25 26 26 27 27 27 26 24 21 20 20 20 20 19 18 17 16 15 14 14 14 14 14 14 13 12 12 12 12 12 12 12 13 13 13 13 14 15 16 16 15 14 14 14 14 14 14 14 14
26 25 26 27 28 28 27 25 22 20 21 21 20 20 20 19 18 17 15 15 15 14 13 13 12 12 12 12 12 12 13 13 13 14 14 14 16 16 16 16 15 15 15 15 15 14 14 14 13
27 27 27 28 28 28 27 25 22 21 21 21 21 20 20 19 18 17 16 16 15 15 14 13 13 12 12 12 12 13 14 14 15 15 15 16 16 17 17 16 15 15 15 15 15 15 14 14 14
28 28 28 29 29 29 28 25 22 22 21 21 21 21 21 19 18 16 16 16 16 15 14 14 14 13 13 14 14 14 14 15 16 15 16 16 17 17 17 17 16 15 15 15 15 15 15 15 14
Wind_Direction
164 145 114 76 61 57 49 47 44 46 47 43 38 33 31 27 26 25 27 27 24 21 21 23 21 24 27 26 24 24 24 23 22 20 15 10 4 360 357 349 341 338 333 327 339 348 313 221 202
180 170 144 88 71 65 55 50 48 41 35 40 39 31 27 25 23 22 25 25 23 21 21 22 22 26 29 29 26 23 20 19 19 18 13 8 3 356 353 346 337 332 326 312 308 308 267 242 226
193 186 188 122 86 72 61 52 47 41 35 38 40 32 26 22 20 19 22 25 22 20 19 21 21 25 29 28 25 21 19 18 17 14 11 4 0 354 350 348 340 330 317 305 300 294 269 248 241
211 213 208 170 109 78 59 52 52 43 35 35 33 29 26 23 21 19 19 22 20 18 18 18 19 23 25 26 23 20 17 15 13 8 6 1 356 354 350 347 336 318 309 310 294 279 263 249 247
215 221 216 185 161 68 42 46 41 42 34 30 30 27 24 22 19 15 16 18 16 16 17 17 18 20 22 22 20 17 15 12 9 5 3 360 354 351 348 343 338 324 311 302 293 273 260 252 255
220 225 223 230 194 190 356 32 37 34 33 28 26 24 19 15 14 12 12 10 12 15 18 19 15 17 18 16 14 12 11 8 6 4 3 357 355 351 347 341 336 327 311 296 290 282 270 264 257
225 225 230 235 219 235 304 353 7 16 17 12 10 12 15 15 10 9 10 8 7 12 16 16 13 13 14 13 8 7 8 7 3 0 359 355 352 347 340 338 333 324 316 305 294 282 269 261 253
227 233 235 236 229 253 298 330 345 1 9 360 356 358 4 7 5 7 11 10 6 8 13 14 12 11 11 9 7 6 5 5 2 358 358 355 353 344 334 332 330 325 319 310 294 280 272 258 246
230 232 239 242 238 252 272 301 329 335 354 349 346 348 353 357 359 3 7 9 8 9 12 14 14 9 8 8 6 5 4 3 1 357 357 355 354 346 341 333 329 328 320 313 298 286 278 253 240
230 231 239 243 243 251 265 277 306 321 328 331 332 339 340 344 349 352 356 1 4 9 13 16 15 9 5 3 2 2 3 2 359 356 356 355 352 345 343 338 332 332 325 310 295 278 265 253 244
231 231 235 242 244 250 258 268 283 303 310 319 326 329 323 326 336 343 347 353 359 3 6 9 7 3 1 360 1 3 3 2 0 357 359 360 356 349 344 345 341 337 329 316 292 270 251 247 247
232 234 236 242 249 255 257 264 279 296 306 311 316 317 317 321 329 333 337 346 353 358 2 3 1 360 359 1 3 3 2 1 1 360 359 359 358 354 351 351 348 344 338 333 313 270 247 242 244
232 235 238 241 248 253 259 266 277 290 301 305 310 314 312 316 322 328 338 345 347 354 0 2 356 355 357 357 356 356 358 358 359 359 358 357 357 358 358 357 355 353 347 341 318 273 255 254 249
234 234 237 240 245 251 259 270 278 287 293 297 304 308 309 314 318 324 333 339 344 351 353 353 350 351 352 352 351 353 355 355 355 355 353 353 355 358 358 356 353 353 346 340 330 300 268 256 250
237 235 235 238 244 250 260 266 274 282 289 293 299 302 303 307 311 317 324 330 333 340 345 345 344 345 347 347 347 348 348 353 355 353 353 351 350 351 351 350 348 347 344 336 324 310 293 261 253
237 236 234 240 246 251 257 262 267 273 283 289 292 297 297 300 304 309 315 321 324 330 336 339 339 340 342 344 344 341 342 348 351 352 353 353 351 348 345 345 345 342 338 331 323 310 299 286 268
239 238 237 240 246 251 255 259 264 269 275 282 287 292 293 294 297 301 306 312 315 317 325 330 332 332 336 342 344 340 338 340 343 345 347 349 349 346 344 341 342 344 340 331 321 306 296 290 281
242 242 240 242 246 251 255 261 264 266 273 278 280 282 287 287 290 293 298 305 308 309 314 319 325 327 331 339 341 338 334 332 337 338 337 338 342 342 341 340 339 340 339 333 324 308 296 292 284
241 242 243 244 247 251 256 259 259 261 266 272 274 274 277 277 280 286 289 297 301 308 306 309 314 318 321 328 332 335 333 327 329 331 331 331 332 335 337 335 334 329 326 323 317 307 299 294 288
241 242 244 246 248 250 255 256 255 256 260 265 267 267 271 270 271 282 287 288 292 301 300 300 304 308 311 316 321 321 326 325 323 325 327 329 329 331 331 330 329 324 321 319 318 309 300 292 288
241 243 245 247 248 250 253 251 250 254 257 261 262 263 264 263 265 278 289 289 290 292 291 292 299 303 306 310 312 313 316 319 318 318 322 325 327 328 328 326 326 323 321 320 317 313 301 293 287
242 244 246 247 246 246 249 248 247 253 253 260 260 261 262 262 267 273 278 279 284 289 289 289 293 294 298 303 306 311 314 314 313 314 319 321 325 327 328 326 324 320 317 316 315 312 304 295 289
242 243 245 245 245 246 248 250 247 251 257 260 254 256 259 261 268 269 274 273 276 283 285 287 289 285 286 291 297 302 305 304 305 309 315 321 325 325 324 324 322 317 314 312 311 311 305 300 291
241 242 244 244 246 248 249 252 251 253 256 254 252 254 256 258 259 264 268 268 269 275 276 281 285 280 279 282 290 295 299 299 300 303 309 314 317 318 319 320 319 312 310 310 308 306 304 300 294
239 241 243 244 246 249 248 250 253 254 254 250 250 253 256 257 257 261 265 263 263 270 275 278 281 280 278 277 279 286 291 294 298 301 305 308 310 312 313 312 313 308 306 304 305 305 304 299 294
240 241 242 246 249 252 250 251 253 253 251 249 250 251 254 257 260 261 263 265 266 268 269 272 275 276 274 274 275 280 287 292 296 299 299 301 303 305 305 305 305 305 303 302 301 303 305 299 293
240 241 243 246 249 251 252 253 253 252 248 249 250 251 253 257 261 262 262 265 269 268 268 270 267 269 270 272 276 279 285 289 294 297 295 298 300 300 299 299 298 301 300 299 300 302 304 301 296
239 240 242 245 249 251 252 253 254 252 248 248 250 254 256 259 262 263 267 269 268 266 267 269 268 269 271 277 281 279 283 287 294 297 297 298 299 299 297 295 295 297 298 298 297 298 301 303 299
238 239 241 244 248 251 253 252 254 253 250 249 249 253 257 261 262 262 266 267 266 265 265 265 269 270 272 275 278 281 286 290 296 296 295 296 298 299 298 295 293 294 296 296 297 298 298 300 300
239 241 243 245 247 250 254 253 252 253 251 251 251 252 255 259 258 260 264 263 265 265 261 262 267 271 276 274 273 279 285 291 295 298 298 297 298 298 296 294 293 293 294 294 296 298 298 297 296
Height
5892 5893 5894 5895 5895 5894 5893 5893 5892 5891 5891 5890 5890 5889 5889 5889 5889 5890 5887 5885 5884 5883 5882 5880 5879 5878 5877 5876 5875 5874 5874 5873 5872 5872 5871 5871 5870 5870 5870 5870 5870 5870 5869 5869 5869 5870 5870 5871 5871
5893 5894 5895 5896 5895 5894 5894 5893 5892 5892 5892 5891 5890 5890 5890 5889 5888 5888 5887 5886 5884 5883 5882 5881 5880 5878 5877 5876 5875 5875 5874 5873 5873 5872 5871 5870 5870 5870 5870 5870 5869 5869 5869 5869 5869 5869 5869 5870 5871
5894 5895 5896 5896 5895 5895 5895 5894 5893 5893 5892 5891 5891 5891 5891 5890 5889 5888 5887 5886 5885 5884 5882 5881 5880 5879 5877 5876 5876 5875 5874 5874 5873 5872 5871 5870 5870 5869 5869 5869 5869 5868 5868 5868 5868 5868 5868 5869 5869
5894 5895 5896 5896 5895 5895 5895 5894 5893 5893 5893 5892 5892 5891 5891 5891 5889 5888 5887 5886 5885 5884 5883 5881 5880 5879 5878 5877 5876 5875 5874 5874 5873 5872 5871 5870 5870 5869 5869 5868 5868 5868 5867 5867 5867 5867 5867 5868 5868
5894 5895 5895 5895 5895 5895 5895 5894 5894 5894 5893 5893 5893 5892 5891 5891 5890 5889 5888 5887 5886 5885 5883 5882 5881 5879 5878 5877 5876 5875 5874 5874 5873 5872 5871 5870 5869 5869 5868 5868 5867 5867 5866 5866 5866 5866 5866 5866 5865
5894 5894 5895 5895 5895 5895 5894 5894 5894 5894 5894 5894 5893 5892 5892 5891 5890 5889 5888 5887 5886 5885 5883 5882 5881 5880 5879 5878 5877 5875 5874 5874 5873 5872 5871 5870 5869 5868 5867 5867 5866 5866 5866 5866 5865 5864 5865 5864 5862
5894 5894 5894 5894 5894 5894 5895 5894 5894 5894 5894 5894 5893 5893 5892 5891 5891 5889 5888 5887 5886 5885 5884 5882 5881 5880 5879 5878 5877 5876 5875 5874 5873 5871 5870 5869 5869 5868 5867 5866 5865 5865 5864 5864 5864 5864 5863 5863 5863
5892 5894 5893 5894 5894 5894 5895 5894 5894 5894 5894 5894 5894 5893 5892 5892 5890 5889 5888 5887 5886 5885 5884 5882 5881 5881 5880 5878 5877 5876 5875 5874 5872 5871 5870 5869 5868 5867 5866 5865 5864 5864 5863 5862 5862 5862 5862 5862 5863
5892 5893 5892 5893 5893 5894 5894 5894 5894 5894 5894 5894 5893 5893 5892 5891 5890 5889 5888 5888 5886 5885 5884 5882 5882 5881 5880 5879 5877 5876 5875 5873 5872 5871 5869 5868 5867 5866 5865 5864 5863 5862 5861 5861 5860 5860 5859 5860 5862
5891 5891 5892 5892 5893 5893 5893 5893 5893 5893 5894 5894 5893 5892 5892 5891 5890 5889 5888 5887 5886 5885 5884 5882 5881 5881 5880 5878 5877 5876 5875 5873 5872 5870 5869 5868 5867 5865 5864 5863 5862 5861 5859 5858 5858 5858 5858 5859 5861
5889 5890 5890 5890 5891 5891 5892 5892 5892 5892 5893 5893 5892 5892 5891 5890 5890 5889 5888 5887 5886 5885 5884 5882 5881 5880 5879 5878 5877 5876 5874 5873 5872 5870 5869 5867 5866 5865 5863 5862 5861 5860 5858 5856 5855 5856 5856 5858 5860
5887 5888 5888 5889 5890 5890 5891 5891 5891 5892 5892 5892 5892 5891 5890 5889 5889 5888 5887 5887 5885 5884 5883 5882 5881 5880 5879 5878 5876 5875 5874 5873 5871 5870 5869 5867 5866 5864 5863 5861 5860 5859 5857 5855 5854 5855 5856 5857 5859
5885 5886 5887 5888 5888 5889 5889 5890 5890 5890 5891 5891 5890 5890 5889 5888 5888 5887 5886 5886 5885 5884 5883 5882 5881 5880 5879 5878 5876 5875 5874 5872 5871 5869 5868 5867 5865 5864 5862 5861 5859 5858 5857 5855 5855 5855 5856 5857 5858
5883 5884 5885 5886 5886 5887 5888 5888 5888 5889 5889 5889 5889 5888 5888 5887 5887 5886 5885 5885 5884 5883 5882 5881 5881 5880 5879 5877 5876 5874 5873 5871 5870 5868 5867 5866 5864 5863 5862 5860 5859 5858 5857 5856 5856 5856 5856 5856 5857
5880 5882 5883 5884 5884 5884 5886 5887 5886 5886 5886 5887 5887 5886 5886 5885 5885 5885 5884 5884 5883 5883 5882 5881 5880 5879 5878 5876 5874 5873 5872 5870 5869 5868 5866 5865 5864 5862 5861 5860 5859 5858 5856 5856 5855 5855 5855 5855 5855
5877 5879 5880 5881 5881 5882 5884 5884 5884 5884 5884 5884 5884 5884 5884 5883 5883 5883 5883 5882 5882 5882 5881 5880 5879 5878 5877 5875 5874 5872 5871 5870 5868 5867 5866 5865 5863 5862 5861 5860 5858 5857 5856 5855 5854 5854 5854 5854 5854
5873 5875 5877 5878 5878 5878 5880 5881 5881 5881 5881 5881 5882 5881 5881 5881 5881 5881 5881 5881 5881 5880 5880 5879 5878 5877 5876 5874 5873 5871 5870 5869 5868 5867 5865 5864 5863 5862 5860 5859 5858 5856 5855 5854 5853 5853 5853 5852 5852
5870 5871 5873 5874 5875 5875 5876 5877 5878 5878 5878 5879 5879 5879 5879 5879 5879 5879 5879 5879 5879 5879 5878 5878 5877 5876 5875 5873 5872 5871 5869 5868 5867 5866 5865 5863 5862 5861 5859 5858 5857 5856 5854 5853 5852 5852 5851 5851 5851
5866 5868 5869 5870 5871 5872 5872 5873 5874 5874 5875 5875 5876 5876 5876 5876 5876 5877 5877 5877 5877 5877 5877 5876 5875 5874 5873 5872 5871 5870 5869 5868 5867 5865 5864 5863 5861 5860 5858 5857 5856 5855 5853 5852 5851 5851 5850 5850 5849
5861 5863 5865 5867 5867 5868 5869 5870 5871 5871 5872 5872 5872 5873 5874 5874 5874 5874 5875 5875 5875 5875 5874 5874 5873 5873 5872 5871 5870 5869 5868 5867 5866 5864 5863 5862 5860 5859 5857 5856 5855 5853 5852 5851 5850 5849 5849 5848 5848
5857 5860 5861 5862 5863 5863 5865 5866 5867 5868 5869 5870 5870 5871 5871 5871 5872 5872 5872 5872 5872 5872 5872 5871 5871 5870 5870 5869 5868 5867 5866 5865 5864 5863 5862 5860 5859 5857 5856 5854 5853 5852 5850 5849 5848 5848 5847 5846 5846
5853 5855 5856 5857 5858 5859 5861 5862 5864 5865 5866 5867 5868 5868 5868 5869 5869 5869 5869 5870 5870 5870 5869 5869 5868 5868 5867 5867 5866 5865 5864 5864 5863 5861 5860 5859 5857 5856 5854 5853 5851 5850 5849 5848 5847 5846 5845 5844 5843
5848 5850 5851 5852 5853 5855 5856 5857 5861 5861 5862 5863 5864 5865 5865 5866 5866 5866 5867 5867 5867 5867 5866 5866 5866 5866 5865 5865 5864 5863 5862 5861 5861 5860 5858 5857 5855 5854 5852 5851 5849 5848 5847 5846 5845 5844 5842 5841 5841
5843 5845 5846 5847 5848 5850 5853 5853 5856 5857 5858 5859 5860 5861 5861 5862 5863 5863 5864 5863 5863 5863 5863 5863 5863 5862 5862 5862 5862 5861 5860 5859 5858 5857 5856 5855 5853 5852 5851 5849 5847 5846 5845 5844 5842 5841 5840 5839 5838
5837 5840 5841 5842 5843 5845 5848 5848 5851 5853 5854 5856 5857 5857 5858 5858 5859 5860 5860 5860 5860 5860 5860 5860 5860 5859 5859 5859 5859 5859 5858 5857 5856 5855 5854 5853 5851 5850 5848 5847 5845 5844 5843 5842 5840 5839 5838 5836 5835
5832 5834 5836 5838 5839 5841 5842 5843 5847 5849 5850 5852 5853 5853 5854 5855 5855 5856 5856 5856 5856 5856 5856 5856 5856 5856 5856 5856 5856 5856 5855 5855 5853 5852 5851 5850 5848 5847 5846 5844 5842 5841 5840 5839 5838 5836 5835 5834 5832
5827 5828 5831 5833 5834 5835 5837 5840 5842 5844 5846 5847 5849 5849 5850 5851 5851 5851 5851 5852 5852 5852 5852 5852 5852 5852 5853 5852 5852 5852 5852 5851 5850 5849 5848 5846 5845 5844 5842 5841 5839 5838 5837 5836 5835 5833 5832 5831 5829
5822 5824 5825 5827 5828 5829 5832 5834 5838 5840 5841 5843 5845 5845 5846 5847 5847 5846 5847 5848 5848 5849 5849 5849 5849 5849 5849 5849 5848 5848 5848 5847 5847 5846 5844 5842 5841 5840 5838 5837 5836 5835 5833 5832 5831 5830 5829 5827 5826
5815 5817 5819 5821 5823 5824 5826 5831 5833 5835 5837 5838 5840 5841 5842 5842 5843 5843 5844 5844 5844 5844 5844 5845 5845 5845 5845 5846 5845 5845 5845 5844 5843 5841 5840 5838 5837 5835 5834 5833 5832 5831 5829 5828 5827 5826 5825 5823 5822
5809 5811 5813 5816 5817 5819 5821 5827 5827 5829 5831 5833 5834 5836 5837 5837 5838 5839 5839 5839 5840 5840 5840 5841 5841 5841 5841 5841 5842 5841 5841 5840 5839 5837 5836 5834 5833 5831 5830 5829 5828 5827 5826 5824 5823 5822 5821 5819 5818